| time (UTC) | temp C | wind direction | speed KPH | gust KPH | rain 1hr cm | rain 24hr cm | rain mn cm | humidity % | barometer mb |
| 20260901231103 | 28 | 59 | 1.6 | 3.2 | 0.00 | 0.00 | 0.00 | 86 | 1015.7 |
| 20260901230603 | 28 | 54 | 1.6 | 3.2 | 0.00 | 0.00 | 0.00 | 85 | 1015.6 |
| 20260901230033 | 28 | 42 | 1.6 | 3.2 | 0.00 | 0.00 | 0.00 | 83 | 1015.7 |
| 20260901225503 | 28 | 54 | 3.2 | 6.4 | 0.00 | 0.00 | 0.00 | 83 | 1015.7 |
| 20260901225003 | 28 | 54 | 3.2 | 6.4 | 0.00 | 0.00 | 0.00 | 83 | 1015.6 |
| 20260901224808 | 28 | 46 | 3.2 | 6.4 | 0.00 | 0.00 | 0.00 | 84 | 1015.7 |
| 20260901224503 | 28 | 46 | 3.2 | 6.4 | 0.00 | 0.00 | 0.00 | 84 | 1015.7 |
| 20260901224003 | 28 | 44 | 3.2 | 6.4 | 0.00 | 0.00 | 0.00 | 86 | 1015.7 |
| 20260901223433 | 28 | 43 | 1.6 | 4.8 | 0.00 | 0.00 | 0.00 | 84 | 1015.7 |
| 20260901222933 | 29 | 35 | 1.6 | 4.8 | 0.00 | 0.00 | 0.00 | 84 | 1015.6 |
| 20260901222403 | 29 | 35 | 1.6 | 4.8 | 0.00 | 0.00 | 0.00 | 84 | 1015.7 |
| 20260901222138 | 29 | 39 | 1.6 | 4.8 | 0.00 | 0.00 | 0.00 | 83 | 1015.5 |
| 20260901221833 | 29 | 39 | 1.6 | 4.8 | 0.00 | 0.00 | 0.00 | 83 | 1015.5 |
| 20260901221333 | 29 | 44 | 3.2 | 4.8 | 0.00 | 0.00 | 0.00 | 83 | 1015.4 |
| 20260901220552 | 29 | 49 | 3.2 | 9.7 | 0.00 | 0.00 | 0.00 | 82 | 1015.4 |
| 20260901220233 | 29 | 49 | 3.2 | 9.7 | 0.00 | 0.00 | 0.00 | 82 | 1015.4 |
| 20260901214133 | 30 | 28 | 3.2 | 6.4 | 0.00 | 0.00 | 0.00 | 79 | 1015.4 |
| 20260901213820 | 30 | 40 | 3.2 | 8.0 | 0.00 | 0.00 | 0.00 | 79 | 1015.4 |
| 20260901213603 | 30 | 40 | 3.2 | 8.0 | 0.00 | 0.00 | 0.00 | 79 | 1015.4 |
| 20260901213033 | 30 | 68 | 4.8 | 14.5 | 0.00 | 0.03 | 0.00 | 79 | 1015.4 |
| 20260901212503 | 30 | 75 | 4.8 | 14.5 | 0.00 | 0.03 | 0.00 | 78 | 1015.3 |
| 20260901212003 | 30 | 67 | 4.8 | 12.9 | 0.00 | 0.03 | 0.00 | 80 | 1015.2 |
| 20260901211749 | 30 | 67 | 4.8 | 11.3 | 0.00 | 0.05 | 0.00 | 79 | 1015.2 |
| 20260901211503 | 30 | 67 | 4.8 | 11.3 | 0.00 | 0.05 | 0.00 | 79 | 1015.2 |
| 20260901211209 | 30 | 70 | 4.8 | 11.3 | 0.00 | 0.08 | 0.00 | 80 | 1015.2 |
| 20260901211003 | 30 | 70 | 4.8 | 11.3 | 0.00 | 0.08 | 0.00 | 80 | 1015.2 |
| 20260901210433 | 30 | 75 | 8.0 | 17.7 | 0.00 | 0.13 | 0.00 | 79 | 1015.4 |
| 20260901205333 | 31 | 61 | 6.4 | 12.9 | 0.00 | 0.18 | 0.00 | 76 | 1015.1 |
| 20260901203453 | 30 | 81 | 8.0 | 24.1 | 0.00 | 0.20 | 0.00 | 79 | 1015.1 |
| 20260901203233 | 30 | 81 | 8.0 | 24.1 | 0.00 | 0.20 | 0.00 | 79 | 1015.1 |
| 20260901202541 | 31 | 64 | 6.4 | 11.3 | 0.00 | 0.23 | 0.00 | 78 | 1015.3 |
| 20260901202233 | 31 | 64 | 6.4 | 11.3 | 0.00 | 0.23 | 0.00 | 78 | 1015.3 |
| 20260901201941 | 30 | 67 | 6.4 | 16.1 | 0.00 | 0.25 | 0.00 | 77 | 1015.4 |
| 20260901201733 | 30 | 67 | 6.4 | 16.1 | 0.00 | 0.25 | 0.00 | 77 | 1015.4 |
| 20260901200816 | 30 | 53 | 4.8 | 9.7 | 0.00 | 0.30 | 0.00 | 77 | 1015.5 |
| 20260901200633 | 30 | 53 | 4.8 | 9.7 | 0.00 | 0.30 | 0.00 | 77 | 1015.5 |
| 20260901200411 | 30 | 66 | 4.8 | 11.3 | 0.00 | 0.33 | 0.00 | 80 | 1015.5 |
| 20260901195749 | 30 | 74 | 6.4 | 14.5 | 0.00 | 0.38 | 0.00 | 83 | 1015.5 |
| 20260901195603 | 30 | 74 | 6.4 | 14.5 | 0.00 | 0.38 | 0.00 | 83 | 1015.5 |
| 20260901193623 | 29 | 70 | 1.6 | 12.9 | 0.00 | 0.38 | 0.00 | 84 | 1015.7 |
| 20260901193403 | 29 | 70 | 1.6 | 12.9 | 0.00 | 0.38 | 0.00 | 84 | 1015.7 |
| 20260901193111 | 29 | 55 | 1.6 | 4.8 | 0.00 | 0.38 | 0.00 | 83 | 1015.6 |
| 20260901192903 | 29 | 55 | 1.6 | 4.8 | 0.00 | 0.38 | 0.00 | 83 | 1015.6 |
| 20260901192333 | 28 | 83 | 4.8 | 12.9 | 0.00 | 0.38 | 0.00 | 84 | 1015.8 |
| 20260901191833 | 28 | 84 | 4.8 | 12.9 | 0.00 | 0.38 | 0.00 | 84 | 1015.8 |
| 20260901191333 | 29 | 81 | 4.8 | 11.3 | 0.00 | 0.38 | 0.00 | 84 | 1015.9 |
| 20260901184538 | 29 | 327 | 1.6 | 4.8 | 0.00 | 0.38 | 0.00 | 84 | 1016.2 |
| 20260901184233 | 29 | 327 | 1.6 | 4.8 | 0.00 | 0.38 | 0.00 | 84 | 1016.2 |
| 20260901183733 | 30 | 327 | 1.6 | 4.8 | 0.00 | 0.38 | 0.00 | 83 | 1016.2 |
| 20260901181803 | 30 | 18 | 1.6 | 6.4 | 0.00 | 0.38 | 0.00 | 84 | 1016.6 |
| 20260901181603 | 30 | 18 | 1.6 | 6.4 | 0.00 | 0.38 | 0.00 | 84 | 1016.6 |
| 20260901181226 | 30 | 16 | 3.2 | 6.4 | 0.00 | 0.38 | 0.00 | 85 | 1016.7 |
| 20260901181033 | 30 | 16 | 3.2 | 6.4 | 0.00 | 0.38 | 0.00 | 85 | 1016.7 |
| 20260901180744 | 30 | 350 | 3.2 | 4.8 | 0.00 | 0.38 | 0.00 | 86 | 1016.7 |
| 20260901180533 | 30 | 350 | 3.2 | 4.8 | 0.00 | 0.38 | 0.00 | 86 | 1016.7 |
| 20260901180208 | 29 | 348 | 3.2 | 4.8 | 0.00 | 0.38 | 0.00 | 84 | 1016.8 |
| 20260901180003 | 29 | 348 | 3.2 | 4.8 | 0.00 | 0.38 | 0.00 | 84 | 1016.8 |
| 20260901175503 | 29 | 349 | 1.6 | 4.8 | 0.00 | 0.38 | 0.00 | 82 | 1016.9 |
| 20260901175310 | 29 | 330 | 1.6 | 4.8 | 0.00 | 0.38 | 0.00 | 82 | 1016.9 |
| 20260901175003 | 29 | 330 | 1.6 | 4.8 | 0.00 | 0.38 | 0.00 | 82 | 1016.9 |
| 20260901174809 | 28 | 318 | 1.6 | 4.8 | 0.00 | 0.38 | 0.00 | 81 | 1016.8 |
| 20260901174503 | 28 | 318 | 1.6 | 4.8 | 0.00 | 0.38 | 0.00 | 81 | 1016.8 |
| 20260901174004 | 28 | 320 | 1.6 | 4.8 | 0.00 | 0.38 | 0.00 | 82 | 1016.9 |
| 20260901172933 | 28 | 7 | 3.2 | 4.8 | 0.00 | 0.38 | 0.00 | 82 | 1017.2 |
| 20260901172710 | 28 | 5 | 3.2 | 6.4 | 0.00 | 0.38 | 0.00 | 83 | 1017.3 |
| 20260901172433 | 28 | 5 | 3.2 | 6.4 | 0.00 | 0.38 | 0.00 | 83 | 1017.3 |
| 20260901171933 | 28 | 357 | 3.2 | 6.4 | 0.00 | 0.38 | 0.00 | 83 | 1017.3 |
| 20260901171701 | 28 | 352 | 3.2 | 6.4 | 0.00 | 0.38 | 0.00 | 86 | 1017.4 |
| 20260901171433 | 28 | 352 | 3.2 | 6.4 | 0.00 | 0.38 | 0.00 | 86 | 1017.4 |
| 20260901171208 | 28 | 359 | 3.2 | 6.4 | 0.00 | 0.38 | 0.00 | 86 | 1017.4 |
| 20260901170903 | 28 | 359 | 3.2 | 6.4 | 0.00 | 0.38 | 0.00 | 86 | 1017.4 |
| 20260901170333 | 28 | 25 | 4.8 | 6.4 | 0.00 | 0.38 | 0.00 | 85 | 1017.6 |
| 20260901170028 | 29 | 38 | 3.2 | 6.4 | 0.00 | 0.38 | 0.00 | 85 | 1017.5 |
| 20260901165833 | 29 | 38 | 3.2 | 6.4 | 0.00 | 0.38 | 0.00 | 85 | 1017.5 |
| 20260901165333 | 29 | 53 | 3.2 | 11.3 | 0.00 | 0.38 | 0.00 | 85 | 1017.6 |
| 20260901164833 | 29 | 60 | 3.2 | 11.3 | 0.00 | 0.38 | 0.00 | 84 | 1017.7 |
| 20260901163233 | 29 | 81 | 8.0 | 11.3 | 0.00 | 0.38 | 0.00 | 88 | 1017.7 |
| 20260901161632 | 29 | 80 | 8.0 | 20.9 | 0.00 | 0.38 | 0.00 | 87 | 1017.6 |
| 20260901160133 | 30 | 75 | 3.2 | 6.4 | 0.00 | 0.38 | 0.00 | 79 | 1017.6 |
| 20260901154102 | 31 | 64 | 1.6 | 4.8 | 0.00 | 0.38 | 0.00 | 79 | 1017.6 |
| 20260901153602 | 31 | 85 | 3.2 | 6.4 | 0.00 | 0.38 | 0.00 | 80 | 1017.6 |
| 20260901153302 | 31 | 92 | 3.2 | 6.4 | 0.00 | 0.38 | 0.00 | 79 | 1017.7 |
| 20260901153033 | 31 | 92 | 3.2 | 6.4 | 0.00 | 0.38 | 0.00 | 79 | 1017.7 |
| 20260901152502 | 31 | 74 | 1.6 | 6.4 | 0.00 | 0.38 | 0.00 | 81 | 1017.8 |
| 20260901152002 | 31 | 325 | 1.6 | 3.2 | 0.00 | 0.38 | 0.00 | 81 | 1017.8 |
| 20260901151747 | 30 | 346 | 1.6 | 4.8 | 0.00 | 0.38 | 0.00 | 80 | 1017.7 |
| 20260901151432 | 30 | 346 | 1.6 | 4.8 | 0.00 | 0.38 | 0.00 | 80 | 1017.7 |
| 20260901151138 | 30 | 9 | 3.2 | 6.4 | 0.00 | 0.38 | 0.00 | 82 | 1017.7 |
| 20260901150902 | 30 | 9 | 3.2 | 6.4 | 0.00 | 0.38 | 0.00 | 82 | 1017.7 |
| 20260901150402 | 30 | 31 | 3.2 | 6.4 | 0.00 | 0.38 | 0.00 | 85 | 1017.6 |
| 20260901145902 | 30 | 35 | 3.2 | 6.4 | 0.00 | 0.38 | 0.00 | 84 | 1017.7 |
| 20260901145754 | 30 | 56 | 3.2 | 6.4 | 0.00 | 0.38 | 0.00 | 86 | 1017.7 |
| 20260901145403 | 30 | 56 | 3.2 | 6.4 | 0.00 | 0.38 | 0.00 | 86 | 1017.7 |
| 20260901145139 | 30 | 60 | 1.6 | 4.8 | 0.00 | 0.38 | 0.00 | 87 | 1017.7 |
| 20260901144833 | 30 | 60 | 1.6 | 4.8 | 0.00 | 0.38 | 0.00 | 87 | 1017.7 |
| 20260901144332 | 29 | 43 | 1.6 | 4.8 | 0.00 | 0.38 | 0.00 | 88 | 1017.7 |
| 20260901143803 | 28 | 67 | 1.6 | 4.8 | 0.00 | 0.38 | 0.00 | 89 | 1017.7 |
| 20260901142732 | 28 | 46 | 1.6 | 4.8 | 0.00 | 0.38 | 0.00 | 94 | 1017.5 |
| 20260901142202 | 27 | 55 | 1.6 | 3.2 | 0.00 | 0.38 | 0.00 | 95 | 1017.5 |
| 20260901141132 | 27 | 77 | 1.6 | 3.2 | 0.00 | 0.38 | 0.00 | 95 | 1017.6 |
| 20260901140602 | 27 | 80 | 1.6 | 4.8 | 0.00 | 0.38 | 0.00 | 95 | 1017.5 |
| 20260901135032 | 26 | 88 | 3.2 | 6.4 | 0.00 | 0.38 | 0.00 | 97 | 1017.4 |
| 20260901134808 | 26 | 93 | 3.2 | 6.4 | 0.00 | 0.38 | 0.00 | 98 | 1017.3 |
| 20260901134533 | 26 | 93 | 3.2 | 6.4 | 0.00 | 0.38 | 0.00 | 98 | 1017.3 |
| 20260901134002 | 26 | 91 | 3.2 | 6.4 | 0.00 | 0.38 | 0.00 | 98 | 1017.4 |
| 20260901133432 | 26 | 90 | 3.2 | 4.8 | 0.00 | 0.38 | 0.00 | 99 | 1017.3 |
| 20260901132932 | 26 | 84 | 3.2 | 4.8 | 0.00 | 0.38 | 0.00 | 99 | 1017.1 |
| 20260901132402 | 26 | 75 | 1.6 | 4.8 | 0.00 | 0.38 | 0.00 | 99 | 1017.3 |
| 20260901131832 | 26 | 86 | 3.2 | 6.4 | 0.00 | 0.38 | 0.00 | 100 | 1017.1 |
| 20260901130233 | 26 | 63 | 1.6 | 4.8 | 0.00 | 0.38 | 0.00 | 100 | 1017.1 |
| 20260901125703 | 25 | 62 | 1.6 | 3.2 | 0.00 | 0.38 | 0.00 | 100 | 1017.1 |
| 20260901124103 | 25 | 37 | 1.6 | 3.2 | 0.00 | 0.38 | 0.00 | 100 | 1017.0 |
| 20260901123804 | 25 | 37 | 1.6 | 1.6 | 0.00 | 0.38 | 0.00 | 100 | 1017.0 |
| 20260901123602 | 25 | 37 | 1.6 | 1.6 | 0.00 | 0.38 | 0.00 | 100 | 1017.0 |
| 20260901122532 | 25 | 37 | 0.0 | 1.6 | 0.00 | 0.38 | 0.00 | 100 | 1017.0 |
| 20260901121718 | 25 | 37 | 0.0 | 3.2 | 0.00 | 0.38 | 0.00 | 100 | 1016.9 |
| 20260901121502 | 25 | 37 | 0.0 | 3.2 | 0.00 | 0.38 | 0.00 | 100 | 1016.9 |
| 20260901120708 | 25 | 0 | 0.0 | 0.0 | 0.00 | 0.38 | 0.00 | 100 | 1016.8 |
| 20260901120432 | 25 | 0 | 0.0 | 0.0 | 0.00 | 0.38 | 0.00 | 100 | 1016.8 |
| 20260901115902 | 25 | 0 | 0.0 | 0.0 | 0.00 | 0.38 | 0.00 | 100 | 1016.9 |
| 20260901115708 | 25 | 37 | 0.0 | 1.6 | 0.00 | 0.38 | 0.00 | 100 | 1016.8 |
| 20260901115402 | 25 | 37 | 0.0 | 1.6 | 0.00 | 0.38 | 0.00 | 100 | 1016.8 |
| 20260901115214 | 25 | 37 | 0.0 | 1.6 | 0.00 | 0.38 | 0.00 | 100 | 1016.8 |
| 20260901114902 | 25 | 37 | 0.0 | 1.6 | 0.00 | 0.38 | 0.00 | 100 | 1016.8 |
| 20260901114333 | 25 | 37 | 0.0 | 1.6 | 0.00 | 0.38 | 0.00 | 100 | 1016.7 |
| 20260901113803 | 25 | 37 | 0.0 | 1.6 | 0.00 | 0.38 | 0.00 | 100 | 1016.5 |
| 20260901111703 | 24 | 37 | 0.0 | 1.6 | 0.00 | 0.38 | 0.00 | 100 | 1016.5 |
| 20260901110728 | 24 | 37 | 0.0 | 3.2 | 0.00 | 0.38 | 0.00 | 100 | 1016.4 |
| 20260901110603 | 24 | 37 | 0.0 | 3.2 | 0.00 | 0.38 | 0.00 | 100 | 1016.4 |
| 20260901105603 | 25 | 37 | 1.6 | 3.2 | 0.00 | 0.38 | 0.00 | 100 | 1016.5 |
| 20260901104534 | 25 | 37 | 1.6 | 1.6 | 0.00 | 0.38 | 0.00 | 100 | 1016.3 |
| 20260901104256 | 25 | 37 | 1.6 | 3.2 | 0.00 | 0.38 | 0.00 | 100 | 1016.2 |
| 20260901104003 | 25 | 37 | 1.6 | 3.2 | 0.00 | 0.38 | 0.00 | 100 | 1016.2 |
| 20260901103502 | 25 | 37 | 1.6 | 3.2 | 0.00 | 0.38 | 0.00 | 100 | 1016.1 |
| 20260901103325 | 25 | 37 | 1.6 | 3.2 | 0.00 | 0.38 | 0.00 | 100 | 1016.2 |
| 20260901103003 | 25 | 37 | 1.6 | 3.2 | 0.00 | 0.38 | 0.00 | 100 | 1016.2 |
| 20260901102432 | 25 | 37 | 1.6 | 3.2 | 0.00 | 0.38 | 0.00 | 100 | 1016.2 |
| 20260901101933 | 25 | 37 | 0.0 | 1.6 | 0.00 | 0.38 | 0.00 | 100 | 1016.1 |
| 20260901101344 | 25 | 37 | 1.6 | 3.2 | 0.00 | 0.38 | 0.00 | 100 | 1016.0 |
| 20260901100932 | 25 | 37 | 1.6 | 3.2 | 0.00 | 0.38 | 0.00 | 100 | 1016.0 |
| 20260901100432 | 25 | 37 | 1.6 | 3.2 | 0.00 | 0.38 | 0.00 | 100 | 1016.0 |
| 20260901095902 | 25 | 37 | 0.0 | 1.6 | 0.00 | 0.38 | 0.00 | 100 | 1016.0 |
| 20260901095402 | 25 | 37 | 0.0 | 1.6 | 0.00 | 0.38 | 0.00 | 100 | 1015.9 |
| 20260901094902 | 25 | 37 | 1.6 | 1.6 | 0.00 | 0.38 | 0.00 | 100 | 1015.9 |
| 20260901094206 | 25 | 37 | 0.0 | 1.6 | 0.00 | 0.38 | 0.00 | 100 | 1015.6 |
| 20260901093902 | 25 | 37 | 0.0 | 1.6 | 0.00 | 0.38 | 0.00 | 100 | 1015.6 |
| 20260901093635 | 25 | 37 | 0.0 | 1.6 | 0.00 | 0.38 | 0.00 | 100 | 1015.7 |
| 20260901093402 | 25 | 37 | 0.0 | 1.6 | 0.00 | 0.38 | 0.00 | 100 | 1015.7 |
| 20260901093129 | 25 | 37 | 0.0 | 1.6 | 0.00 | 0.38 | 0.00 | 100 | 1015.6 |
| 20260901092833 | 25 | 37 | 0.0 | 1.6 | 0.00 | 0.38 | 0.00 | 100 | 1015.6 |
| 20260901092559 | 25 | 0 | 0.0 | 0.0 | 0.00 | 0.38 | 0.00 | 100 | 1015.6 |
| 20260901092333 | 25 | 0 | 0.0 | 0.0 | 0.00 | 0.38 | 0.00 | 100 | 1015.6 |
| 20260901092136 | 25 | 0 | 0.0 | 0.0 | 0.00 | 0.38 | 0.00 | 100 | 1015.6 |
| 20260901091833 | 25 | 0 | 0.0 | 0.0 | 0.00 | 0.38 | 0.00 | 100 | 1015.6 |
| 20260901091033 | 25 | 37 | 0.0 | 1.6 | 0.00 | 0.38 | 0.00 | 100 | 1015.5 |
| 20260901090732 | 25 | 37 | 0.0 | 1.6 | 0.00 | 0.38 | 0.00 | 100 | 1015.5 |
| 20260901084603 | 25 | 37 | 0.0 | 3.2 | 0.00 | 0.38 | 0.00 | 100 | 1015.5 |
| 20260901084325 | 25 | 37 | 0.0 | 3.2 | 0.00 | 0.38 | 0.00 | 100 | 1015.4 |
| 20260901084032 | 25 | 37 | 0.0 | 3.2 | 0.00 | 0.38 | 0.00 | 100 | 1015.4 |
| 20260901083502 | 25 | 37 | 0.0 | 3.2 | 0.00 | 0.38 | 0.00 | 100 | 1015.4 |
| 20260901083004 | 25 | 37 | 1.6 | 3.2 | 0.00 | 0.38 | 0.00 | 100 | 1015.4 |
| 20260901082503 | 25 | 37 | 1.6 | 3.2 | 0.00 | 0.38 | 0.00 | 100 | 1015.3 |
| 20260901082141 | 25 | 37 | 1.6 | 3.2 | 0.00 | 0.38 | 0.00 | 100 | 1015.3 |
| 20260901081932 | 25 | 37 | 1.6 | 3.2 | 0.00 | 0.38 | 0.00 | 100 | 1015.3 |
| 20260901081402 | 25 | 37 | 1.6 | 3.2 | 0.00 | 0.38 | 0.00 | 100 | 1015.4 |
| 20260901081131 | 25 | 37 | 1.6 | 3.2 | 0.00 | 0.38 | 0.00 | 100 | 1015.4 |
| 20260901080903 | 25 | 37 | 1.6 | 3.2 | 0.00 | 0.38 | 0.00 | 100 | 1015.4 |
| 20260901080708 | 25 | 37 | 0.0 | 3.2 | 0.00 | 0.38 | 0.00 | 100 | 1015.5 |
| 20260901080403 | 25 | 37 | 0.0 | 3.2 | 0.00 | 0.38 | 0.00 | 100 | 1015.5 |
| 20260901075832 | 25 | 37 | 0.0 | 3.2 | 0.00 | 0.38 | 0.00 | 100 | 1015.5 |
| 20260901075307 | 25 | 37 | 1.6 | 3.2 | 0.00 | 0.38 | 0.00 | 100 | 1015.5 |
| 20260901075033 | 25 | 37 | 1.6 | 3.2 | 0.00 | 0.38 | 0.00 | 100 | 1015.5 |
| 20260901074802 | 25 | 37 | 1.6 | 3.2 | 0.00 | 0.38 | 0.00 | 100 | 1015.5 |
| 20260901074302 | 25 | 37 | 0.0 | 3.2 | 0.00 | 0.38 | 0.00 | 100 | 1015.4 |
| 20260901071603 | 25 | 31 | 1.6 | 3.2 | 0.00 | 0.38 | 0.00 | 100 | 1015.8 |
| 20260901071311 | 25 | 13 | 1.6 | 3.2 | 0.00 | 0.38 | 0.00 | 100 | 1015.7 |
| 20260901071032 | 25 | 13 | 1.6 | 3.2 | 0.00 | 0.38 | 0.00 | 100 | 1015.7 |
| 20260901070532 | 25 | 6 | 1.6 | 3.2 | 0.00 | 0.38 | 0.00 | 100 | 1015.9 |
| 20260901070003 | 25 | 10 | 1.6 | 3.2 | 0.00 | 0.38 | 0.00 | 100 | 1015.9 |
| 20260901065503 | 25 | 18 | 0.0 | 3.2 | 0.00 | 0.38 | 0.00 | 99 | 1016.0 |
| 20260901064932 | 25 | 18 | 0.0 | 1.6 | 0.00 | 0.38 | 0.00 | 99 | 1016.1 |
| 20260901063332 | 25 | 26 | 1.6 | 3.2 | 0.00 | 0.38 | 0.00 | 99 | 1016.5 |
| 20260901062142 | 25 | 4 | 1.6 | 3.2 | 0.00 | 0.38 | 0.00 | 100 | 1016.7 |
| 20260901061732 | 25 | 4 | 1.6 | 3.2 | 0.00 | 0.38 | 0.00 | 100 | 1016.7 |
| 20260901061542 | 25 | 350 | 1.6 | 3.2 | 0.00 | 0.38 | 0.00 | 100 | 1016.9 |
| 20260901061233 | 25 | 350 | 1.6 | 3.2 | 0.00 | 0.38 | 0.00 | 100 | 1016.9 |
| 20260901060425 | 25 | 322 | 0.0 | 3.2 | 0.00 | 0.38 | 0.00 | 100 | 1017.2 |
| 20260901060132 | 25 | 322 | 0.0 | 3.2 | 0.00 | 0.38 | 0.00 | 100 | 1017.2 |
| 20260901054329 | 25 | 317 | 1.6 | 1.6 | 0.00 | 0.38 | 0.00 | 99 | 1017.3 |
| 20260901054102 | 25 | 317 | 1.6 | 1.6 | 0.00 | 0.38 | 0.00 | 99 | 1017.3 |
| 20260901053750 | 25 | 317 | 1.6 | 1.6 | 0.00 | 0.38 | 0.00 | 99 | 1017.2 |
| 20260901053532 | 25 | 317 | 1.6 | 1.6 | 0.00 | 0.38 | 0.00 | 99 | 1017.2 |
| 20260901053213 | 25 | 317 | 1.6 | 1.6 | 0.00 | 0.38 | 0.00 | 99 | 1017.3 |
| 20260901053002 | 25 | 317 | 1.6 | 1.6 | 0.00 | 0.38 | 0.00 | 99 | 1017.3 |
| 20260901052432 | 25 | 317 | 1.6 | 1.6 | 0.00 | 0.38 | 0.00 | 99 | 1017.5 |
| 20260901052154 | 25 | 317 | 0.0 | 1.6 | 0.00 | 0.38 | 0.00 | 99 | 1017.5 |
| 20260901051902 | 25 | 317 | 0.0 | 1.6 | 0.00 | 0.38 | 0.00 | 99 | 1017.5 |
| 20260901051645 | 25 | 317 | 0.0 | 1.6 | 0.00 | 0.38 | 0.00 | 99 | 1017.5 |
| 20260901051403 | 25 | 317 | 0.0 | 1.6 | 0.00 | 0.38 | 0.00 | 99 | 1017.5 |
| 20260901050832 | 25 | 317 | 0.0 | 1.6 | 0.00 | 0.38 | 0.00 | 99 | 1017.5 |
| 20260901045803 | 25 | 317 | 1.6 | 1.6 | 0.00 | 0.38 | 0.00 | 99 | 1017.6 |
| 20260901044733 | 25 | 317 | 1.6 | 1.6 | 0.00 | 0.38 | 0.00 | 99 | 1017.7 |
| 20260901044202 | 25 | 317 | 1.6 | 3.2 | 0.00 | 0.38 | 0.00 | 99 | 1017.7 |
| 20260901043104 | 25 | 317 | 1.6 | 3.2 | 0.00 | 0.38 | 0.00 | 99 | 1017.7 |
| 20260901042605 | 25 | 317 | 1.6 | 3.2 | 0.00 | 0.38 | 0.00 | 99 | 1017.7 |
| 20260901042104 | 25 | 316 | 1.6 | 3.2 | 0.00 | 0.38 | 0.00 | 99 | 1017.7 |
| 20260901041034 | 25 | 74 | 0.0 | 3.2 | 0.00 | 0.38 | 0.00 | 99 | 1017.8 |
| 20260901040502 | 25 | 102 | 0.0 | 1.6 | 0.00 | 0.38 | 0.00 | 99 | 1017.8 |
| 20260901040002 | 25 | 102 | 0.0 | 1.6 | 0.00 | 0.38 | 0.00 | 99 | 1017.8 |
| 20260901035433 | 25 | 102 | 1.6 | 3.2 | 0.00 | 0.38 | 0.38 | 99 | 1017.9 |
| 20260901034403 | 25 | 102 | 0.0 | 3.2 | 0.00 | 0.38 | 0.38 | 99 | 1017.7 |
| 20260901033904 | 25 | 102 | 0.0 | 1.6 | 0.00 | 0.38 | 0.38 | 99 | 1017.7 |
| 20260901033334 | 25 | 102 | 0.0 | 1.6 | 0.00 | 0.38 | 0.38 | 99 | 1017.8 |
| 20260901033130 | 25 | 102 | 0.0 | 1.6 | 0.00 | 0.38 | 0.38 | 99 | 1017.8 |
| 20260901032833 | 25 | 102 | 0.0 | 1.6 | 0.00 | 0.38 | 0.38 | 99 | 1017.8 |
| 20260901032334 | 25 | 0 | 0.0 | 0.0 | 0.00 | 0.38 | 0.38 | 98 | 1017.8 |
| 20260901031832 | 25 | 102 | 0.0 | 1.6 | 0.00 | 0.38 | 0.38 | 98 | 1017.9 |
| 20260901031302 | 25 | 102 | 0.0 | 1.6 | 0.00 | 0.38 | 0.38 | 98 | 1017.8 |
| 20260901030804 | 25 | 102 | 1.6 | 1.6 | 0.00 | 0.38 | 0.38 | 98 | 1017.9 |
| 20260901025733 | 25 | 102 | 1.6 | 1.6 | 0.00 | 0.38 | 0.38 | 98 | 1018.1 |
| 20260901025233 | 25 | 102 | 0.0 | 1.6 | 0.00 | 0.38 | 0.38 | 98 | 1018.0 |
| 20260901024732 | 25 | 0 | 0.0 | 0.0 | 0.00 | 0.38 | 0.38 | 98 | 1017.9 |
| 20260901024234 | 25 | 0 | 0.0 | 0.0 | 0.00 | 0.38 | 0.38 | 98 | 1017.8 |
| 20260901023732 | 25 | 0 | 0.0 | 0.0 | 0.00 | 0.38 | 0.38 | 98 | 1017.8 |
| 20260901022203 | 26 | 102 | 0.0 | 3.2 | 0.00 | 0.38 | 0.38 | 97 | 1017.5 |
| 20260901020604 | 26 | 81 | 1.6 | 4.8 | 0.00 | 0.38 | 0.38 | 97 | 1017.3 |
| 20260901020104 | 26 | 72 | 1.6 | 4.8 | 0.00 | 0.38 | 0.38 | 97 | 1017.2 |
| 20260901015815 | 26 | 77 | 1.6 | 3.2 | 0.00 | 0.38 | 0.38 | 97 | 1017.2 |
| 20260901015604 | 26 | 77 | 1.6 | 3.2 | 0.00 | 0.38 | 0.38 | 97 | 1017.2 |
| 20260901015334 | 26 | 81 | 1.6 | 6.4 | 0.00 | 0.38 | 0.38 | 97 | 1017.1 |
| 20260901015104 | 26 | 81 | 1.6 | 6.4 | 0.00 | 0.38 | 0.38 | 97 | 1017.1 |
| 20260901014603 | 26 | 92 | 3.2 | 9.7 | 0.00 | 0.38 | 0.38 | 97 | 1017.1 |
| 20260901013749 | 26 | 110 | 3.2 | 6.4 | 0.00 | 0.38 | 0.38 | 97 | 1017.0 |
| 20260901013534 | 26 | 110 | 3.2 | 6.4 | 0.00 | 0.38 | 0.38 | 97 | 1017.0 |
| 20260901013004 | 26 | 103 | 3.2 | 6.4 | 0.00 | 0.38 | 0.38 | 97 | 1017.1 |
| 20260901012504 | 26 | 95 | 4.8 | 9.7 | 0.00 | 0.38 | 0.38 | 97 | 1016.9 |
| 20260901011503 | 26 | 92 | 4.8 | 11.3 | 0.00 | 0.38 | 0.38 | 97 | 1016.7 |
| 20260901011004 | 26 | 88 | 3.2 | 11.3 | 0.00 | 0.38 | 0.38 | 97 | 1016.7 |
| 20260901010503 | 26 | 84 | 1.6 | 4.8 | 0.00 | 0.38 | 0.38 | 97 | 1016.6 |
| 20260901010002 | 26 | 75 | 1.6 | 4.8 | 0.00 | 0.38 | 0.38 | 97 | 1016.5 |
| 20260901005433 | 26 | 70 | 1.6 | 4.8 | 0.00 | 0.38 | 0.38 | 96 | 1016.6 |
| 20260901004903 | 26 | 73 | 1.6 | 4.8 | 0.00 | 0.38 | 0.38 | 96 | 1016.6 |
| 20260901004333 | 26 | 77 | 1.6 | 4.8 | 0.00 | 0.38 | 0.38 | 97 | 1016.6 |
| 20260901003802 | 26 | 75 | 1.6 | 4.8 | 0.00 | 0.38 | 0.38 | 97 | 1016.7 |
| 20260901002732 | 25 | 75 | 0.0 | 1.6 | 0.00 | 0.38 | 0.38 | 97 | 1016.9 |
| 20260901002203 | 25 | 75 | 0.0 | 1.6 | 0.00 | 0.38 | 0.38 | 96 | 1016.8 |
| 20260901002013 | 25 | 75 | 0.0 | 3.2 | 0.00 | 0.38 | 0.38 | 96 | 1016.7 |
| 20260901001708 | 25 | 75 | 0.0 | 3.2 | 0.00 | 0.38 | 0.38 | 96 | 1016.7 |
| 20260831235732 | 25 | 99 | 4.8 | 9.7 | 0.00 | 0.38 | 0.38 | 96 | 1016.7 |
| 20260831235534 | 25 | 99 | 4.8 | 9.7 | 0.00 | 0.38 | 0.38 | 96 | 1016.7 |
| 20260831234434 | 25 | 95 | 4.8 | 9.7 | 0.00 | 0.38 | 0.38 | 96 | 1016.5 |
| 20260831233333 | 25 | 83 | 3.2 | 9.7 | 0.00 | 0.38 | 0.38 | 96 | 1016.5 |
| 20260831232305 | 25 | 88 | 6.4 | 12.9 | 0.00 | 0.38 | 0.38 | 96 | 1016.4 |
| 20260831232125 | 25 | 95 | 4.8 | 12.9 | 0.00 | 0.38 | 0.38 | 96 | 1016.4 |
| 20260831231734 | 25 | 95 | 4.8 | 12.9 | 0.00 | 0.38 | 0.38 | 96 | 1016.4 |